Regional Weather Roundup
Issued by NWS

Home | Current Version | Previous Version | Text Only | Print | Product List | Glossary On
Versions: 1 2 3 4 5 6 7 8 9 10 11 12 13 14 15 16 17 18 19 20 21 22 23 24 25 26 27 28 29 30 31 32 33 34 35 36 37 38 39 40 41 42 43 44 45 46 47 48 49 50
000
ASUS43 KFSD 272102
RWRSD

WEATHER ROUNDUP FOR SOUTH DAKOTA
NATIONAL WEATHER SERVICE SIOUX FALLS SD
400 PM CDT FRI MAR 27 2015

NOTE: "FAIR" INDICATES FEW OR NO CLOUDS BELOW 12,000 FEET WITH NO
SIGNIFICANT WEATHER AND/OR OBSTRUCTIONS TO VISIBILITY.


SDZ001>005-009-010-012>017-272200-
NORTHWEST AND NORTH CENTRAL SOUTH DAKOTA

CITY           SKY/WX    TMP DP  RH WIND       PRES   REMARKS
BUFFALO          N/A     67  34  29 NW23G31   29.85F
FAITH            N/A     68  32  26 N26       29.86F
MOBRIDGE       PTSUNNY   47  34  60 S13       29.91F
$$

SDZ012>016-024>037-041>051-057-063-072>074-272200-
SOUTHWEST AND SOUTH CENTRAL SOUTH DAKOTA

CITY           SKY/WX    TMP DP  RH WIND       PRES   REMARKS
RAPID CTY ARPT PTSUNNY   67  36  31 N24G35    29.93F
PIERRE         PTSUNNY   48  34  58 SE14      29.93F
CUSTER         PTSUNNY   60  31  33 NW13G25   30.01F
ELLSWORTH AFB  PTSUNNY   67  37  33 NW22G30   29.92F
PHILIP         PTSUNNY   67  35  30 N12       29.89F
PINE RIDGE     PTSUNNY   65  35  33 N14G22    29.94F
SPEARFISH      FAIR      63  36  36 NW18G29   29.99S
WINNER         FAIR      54  33  45 S13       29.93F
$$

SDZ004>011-016>023-039-040-272200-
NORTHEAST SOUTH DAKOTA

CITY           SKY/WX    TMP DP  RH WIND       PRES   REMARKS
ABERDEEN       CLOUDY    30  26  85 S16       30.05F FOG     WCI  19
WATERTOWN      CLOUDY    36  14  40 S10       30.05F
SISSETON         N/A     37  13  37 SW10      30.07F
$$

SDZ017-020-022-023-036>040-048>070-272200-
SOUTHEAST SOUTH DAKOTA

CITY           SKY/WX    TMP DP  RH WIND       PRES   REMARKS
SIOUX FALLS    CLOUDY    36  11  35 S8        30.11F
HURON          LGT SNOW  30  28  92 SE14      30.07F VSB 3/4 WCI  19
MITCHELL       CLOUDY    34  27  75 S13       30.09F WCI  25
YANKTON        CLOUDY    36  25  64 S13       30.12F
$$

ABBREVIATIONS USED IN REMARKS
   TC - TEMPERATURE IN CELSIUS
  WCI - WIND CHILL INDEX
   HX - HEAT INDEX
  VSB - VISIBILITY




USA.gov is the U.S. government's official web portal to all federal, state and local government web resources and services.